Torna al catalogo

USA 373

AttivoMilitareVLEO
NORAD 59833·PAYLOAD·🇺🇸 United States

Lanciato May 22, 2024 da Vandenberg Space Force Base

Loading…

Prossimi Passaggi (prossime 24 ore)

TLE

ObsoletoSource: Mike McCants

Epoca: Aug 24, 2026, 20:51 UTC

1 59833U 24096V   26236.86919134 0.00000000  00000-0  00000-0 0    02
2 59833  70.0173 154.6218 0002645 288.5841  71.4159 14.96712699    09

Traccia USA 373 in tempo reale con AllMySat

Download on the App Store